,,PA_Meas_PMT16A,,PR_Meas_QMR101_102,,RH_Meas_QMH101,,SR_Meas_QMS101,,TA_Meas_QMH101,,GenWind,,GenWind,
time,status,PA,status,PR,status,RH,status,SR,status,TA,status,DirAvg,status,SpdAvg,
2011-04-18, 00:00:04,VALID,918.115,VALID,0,VALID,96.3447,VALID,0,VALID,20.2879,VALID,17,VALID,0,
2011-04-18, 00:01:04,VALID,918.121,VALID,0,VALID,96.3295,VALID,0,VALID,20.2684,VALID,17,VALID,0.372656,
2011-04-18, 00:02:04,VALID,918.125,VALID,0,VALID,96.36,VALID,0,VALID,20.2489,VALID,17,VALID,0.0746094,
2011-04-18, 00:03:04,VALID,918.087,VALID,0,VALID,96.3295,VALID,0,VALID,20.2489,VALID,17,VALID,0.375781,
2011-04-18, 00:04:04,VALID,918.08,VALID,0,VALID,96.3524,VALID,0,VALID,20.2489,VALID,17,VALID,0.390625,
2011-04-18, 00:05:04,VALID,918.04,VALID,0,VALID,96.3676,VALID,0,VALID,20.2684,VALID,17,VALID,1.1043,
2011-04-18, 00:06:04,VALID,918.084,VALID,0,VALID,96.4743,VALID,0,VALID,20.2879,VALID,17,VALID,0.580859,
2011-04-18, 00:07:04,VALID,918.053,VALID,0,VALID,96.4286,VALID,0,VALID,20.2863,VALID,17,VALID,0.796484,
2011-04-18, 00:08:04,VALID,918.041,VALID,0,VALID,96.3676,VALID,0.107441,VALID,20.2263,VALID,17,VALID,0.562109,
2011-04-18, 00:09:04,VALID,918.049,VALID,0,VALID,96.3829,VALID,0.107441,VALID,20.2278,VALID,17,VALID,0.0878906,
2011-04-18, 00:10:04,VALID,918.068,VALID,0,VALID,96.4362,VALID,0,VALID,20.2489,VALID,17,VALID,0.912891,
2011-04-18, 00:11:04,VALID,918.079,VALID,0,VALID,96.4667,VALID,0.107441,VALID,20.2473,VALID,17,VALID,0.585156,
2011-04-18, 00:12:04,VALID,918.061,VALID,0,VALID,96.3981,VALID,0,VALID,20.2083,VALID,17,VALID,0.476563,
2011-04-18, 00:13:04,VALID,918.082,VALID,0,VALID,96.4972,VALID,0.107441,VALID,20.2278,VALID,17,VALID,0.60625,
2011-04-18, 00:14:04,VALID,918.129,VALID,0,VALID,96.5353,VALID,0,VALID,20.2668,VALID,17,VALID,0.449609,
2011-04-18, 00:15:04,VALID,918.11,VALID,0,VALID,96.5277,VALID,0.107441,VALID,20.2879,VALID,17,VALID,0.984375,
2011-04-18, 00:16:04,VALID,918.106,VALID,0,VALID,96.5277,VALID,0.107441,VALID,20.2668,VALID,17,VALID,0.971875,
2011-04-18, 00:17:04,VALID,918.137,VALID,0,VALID,96.5429,VALID,0.107441,VALID,20.2668,VALID,17,VALID,0.783203,
2011-04-18, 00:18:04,VALID,918.13,VALID,0,VALID,96.5353,VALID,0,VALID,20.2668,VALID,18,VALID,0.777344,
2011-04-18, 00:19:04,VALID,918.143,VALID,0,VALID,96.5887,VALID,0,VALID,20.2668,VALID,17,VALID,0.782031,
2011-04-18, 00:20:04,VALID,918.142,VALID,0,VALID,96.5658,VALID,0.107441,VALID,20.2863,VALID,17,VALID,0.863672,
2011-04-18, 00:21:04,VALID,918.168,VALID,0,VALID,96.5506,VALID,0.107441,VALID,20.2863,VALID,18,VALID,0.741406,
2011-04-18, 00:22:04,VALID,918.141,VALID,0,VALID,96.5277,VALID,0,VALID,20.2489,VALID,17,VALID,0.958594,
2011-04-18, 00:23:04,VALID,918.127,VALID,0,VALID,96.6497,VALID,0,VALID,20.2879,VALID,18,VALID,1.09375,
2011-04-18, 00:24:04,VALID,918.118,VALID,0,VALID,96.5658,VALID,0,VALID,20.2293,VALID,18,VALID,0.822656,
2011-04-18, 00:25:04,VALID,918.118,VALID,0,VALID,96.642,VALID,0,VALID,20.2278,VALID,18,VALID,0.832031,
2011-04-18, 00:26:04,VALID,918.099,VALID,0,VALID,96.7107,VALID,0,VALID,20.2684,VALID,18,VALID,0.838672,
2011-04-18, 00:27:04,VALID,918.059,VALID,0,VALID,96.7335,VALID,0,VALID,20.2863,VALID,18,VALID,0.726563,
2011-04-18, 00:28:04,VALID,918.086,VALID,0,VALID,96.6878,VALID,0,VALID,20.2863,VALID,18,VALID,0.867578,
2011-04-18, 00:29:04,VALID,918.037,VALID,0,VALID,96.6344,VALID,0,VALID,20.2684,VALID,18,VALID,0.728516,
2011-04-18, 00:30:04,VALID,917.968,VALID,0,VALID,96.7716,VALID,0,VALID,20.3074,VALID,18,VALID,0.399609,
2011-04-18, 00:31:04,VALID,917.933,VALID,0,VALID,96.7335,VALID,0,VALID,20.3074,VALID,18,VALID,0.937109,
2011-04-18, 00:32:04,VALID,917.951,VALID,0,VALID,96.764,VALID,0,VALID,20.2879,VALID,18,VALID,1.06445,
2011-04-18, 00:33:04,VALID,917.901,VALID,0,VALID,96.8098,VALID,0,VALID,20.3074,VALID,18,VALID,1.15,
2011-04-18, 00:34:04,VALID,917.854,VALID,0,VALID,96.7564,VALID,0,VALID,20.3074,VALID,67,VALID,0.872266,
2011-04-18, 00:35:04,VALID,917.872,VALID,0,VALID,96.8098,VALID,0,VALID,20.3269,VALID,37,VALID,0.570313,
2011-04-18, 00:36:04,VALID,917.82,VALID,0,VALID,96.8174,VALID,0,VALID,20.3464,VALID,344,VALID,0.00195313,
2011-04-18, 00:37:04,VALID,917.813,VALID,0,VALID,96.7869,VALID,0,VALID,20.3074,VALID,344,VALID,0.0859375,
2011-04-18, 00:38:04,VALID,917.793,VALID,0,VALID,96.8098,VALID,0,VALID,20.3074,VALID,344,VALID,0,
2011-04-18, 00:39:04,VALID,917.753,VALID,0,VALID,96.764,VALID,0,VALID,20.2684,VALID,285,VALID,0.723828,
2011-04-18, 00:40:04,VALID,917.776,VALID,0,VALID,96.8021,VALID,0,VALID,20.2684,VALID,285,VALID,0.66875,
2011-04-18, 00:41:04,VALID,917.786,VALID,0,VALID,96.8098,VALID,0,VALID,20.2489,VALID,285,VALID,0.816406,
2011-04-18, 00:42:04,VALID,917.76,VALID,0,VALID,96.8021,VALID,0,VALID,20.2293,VALID,285,VALID,0.614062,
2011-04-18, 00:43:04,VALID,917.731,VALID,0,VALID,96.8403,VALID,0,VALID,20.1888,VALID,285,VALID,0.205078,
2011-04-18, 00:44:04,VALID,917.719,VALID,0,VALID,96.8403,VALID,0,VALID,20.2098,VALID,285,VALID,0.444531,
2011-04-18, 00:45:04,VALID,917.746,VALID,0,VALID,96.8707,VALID,0,VALID,20.2098,VALID,285,VALID,0,
2011-04-18, 00:46:04,VALID,917.683,VALID,0,VALID,96.8403,VALID,0,VALID,20.2098,VALID,9,VALID,1.17344,
2011-04-18, 00:47:04,VALID,917.701,VALID,0,VALID,96.8403,VALID,0,VALID,20.1693,VALID,244,VALID,1.41641,
2011-04-18, 00:48:04,VALID,917.715,VALID,0,VALID,96.9012,VALID,0,VALID,20.1888,VALID,246,VALID,0.318359,
2011-04-18, 00:49:04,VALID,917.659,VALID,0,VALID,96.9165,VALID,0,VALID,20.1903,VALID,246,VALID,0.403906,
2011-04-18, 00:50:04,VALID,917.633,VALID,0,VALID,96.9089,VALID,0,VALID,20.1903,VALID,246,VALID,0.321875,
2011-04-18, 00:51:04,VALID,917.639,VALID,0,VALID,96.9089,VALID,0,VALID,20.1903,VALID,315,VALID,0.284375,
2011-04-18, 00:52:04,VALID,917.659,VALID,0,VALID,96.9241,VALID,0.107441,VALID,20.1678,VALID,79,VALID,0.207031,
2011-04-18, 00:53:04,VALID,917.625,VALID,0,VALID,96.9394,VALID,0,VALID,20.2278,VALID,79,VALID,0.927734,
2011-04-18, 00:54:04,VALID,917.673,VALID,0,VALID,96.9394,VALID,0,VALID,20.2083,VALID,79,VALID,0.425,
2011-04-18, 00:55:04,VALID,917.678,VALID,0,VALID,96.947,VALID,0,VALID,20.2473,VALID,79,VALID,0.842578,
2011-04-18, 00:56:04,VALID,917.691,VALID,0,VALID,96.9698,VALID,0.107441,VALID,20.2668,VALID,78,VALID,0.935938,
2011-04-18, 00:57:04,VALID,917.705,VALID,0,VALID,96.9775,VALID,0,VALID,20.2879,VALID,79,VALID,0.199219,
2011-04-18, 00:58:04,VALID,917.723,VALID,0,VALID,96.9698,VALID,0,VALID,20.2863,VALID,78,VALID,0.0410156,
2011-04-18, 00:59:04,VALID,917.734,VALID,0,VALID,96.9775,VALID,0,VALID,20.3058,VALID,78,VALID,0.822266,
2011-04-18, 01:00:04,VALID,917.756,VALID,0,VALID,97.008,VALID,0.107441,VALID,20.3058,VALID,57,VALID,0.495313,
2011-04-18, 01:01:04,VALID,917.761,VALID,0,VALID,97.0003,VALID,0,VALID,20.3043,VALID,56,VALID,0.169922,
2011-04-18, 01:02:04,VALID,917.764,VALID,0,VALID,97.0003,VALID,0,VALID,20.3058,VALID,56,VALID,0.236328,
2011-04-18, 01:03:04,VALID,917.76,VALID,0,VALID,96.9851,VALID,0.107441,VALID,20.2668,VALID,56,VALID,0,
2011-04-18, 01:04:04,VALID,917.754,VALID,0,VALID,97.008,VALID,0.107441,VALID,20.2863,VALID,56,VALID,0.19375,
2011-04-18, 01:05:04,VALID,917.723,VALID,0,VALID,96.9851,VALID,0.107441,VALID,20.2863,VALID,56,VALID,0.142969,
2011-04-18, 01:06:04,VALID,917.708,VALID,0,VALID,97.008,VALID,0.107441,VALID,20.3058,VALID,56,VALID,0.000390625,
2011-04-18, 01:07:04,VALID,917.696,VALID,0,VALID,97.0232,VALID,0,VALID,20.3253,VALID,56,VALID,0.155078,
2011-04-18, 01:08:04,VALID,917.704,VALID,0,VALID,97.0232,VALID,0,VALID,20.3464,VALID,56,VALID,0.521484,
2011-04-18, 01:09:04,VALID,917.703,VALID,0,VALID,97.0232,VALID,0,VALID,20.3269,VALID,56,VALID,1.12539,
2011-04-18, 01:10:04,VALID,917.729,VALID,0,VALID,97.0308,VALID,0,VALID,20.3269,VALID,56,VALID,0.552734,
2011-04-18, 01:11:04,VALID,917.768,VALID,0,VALID,97.008,VALID,0,VALID,20.2684,VALID,56,VALID,0.483594,
2011-04-18, 01:12:04,VALID,917.748,VALID,0,VALID,97.0308,VALID,0,VALID,20.2473,VALID,56,VALID,0.0015625,
2011-04-18, 01:13:04,VALID,917.771,VALID,0,VALID,97.0308,VALID,0,VALID,20.2473,VALID,56,VALID,0.717188,
2011-04-18, 01:14:04,VALID,917.796,VALID,0,VALID,97.0308,VALID,0,VALID,20.3074,VALID,57,VALID,0.264062,
2011-04-18, 01:15:04,VALID,917.794,VALID,0,VALID,97.0232,VALID,0,VALID,20.3074,VALID,57,VALID,0.440625,
2011-04-18, 01:16:04,VALID,917.799,VALID,0,VALID,97.0308,VALID,0,VALID,20.2473,VALID,57,VALID,0.194141,
2011-04-18, 01:17:04,VALID,917.809,VALID,0,VALID,97.0461,VALID,0,VALID,20.2684,VALID,57,VALID,0.441406,
2011-04-18, 01:18:04,VALID,917.778,VALID,0,VALID,97.0232,VALID,0,VALID,20.2473,VALID,216,VALID,0.698047,
2011-04-18, 01:19:04,VALID,917.78,VALID,0,VALID,97.0461,VALID,0,VALID,20.1888,VALID,217,VALID,0.695703,
2011-04-18, 01:20:04,VALID,917.782,VALID,0,VALID,97.0308,VALID,0,VALID,20.2098,VALID,217,VALID,0.475391,
2011-04-18, 01:21:04,VALID,917.81,VALID,0,VALID,97.0537,VALID,0,VALID,20.2489,VALID,216,VALID,0.35625,
2011-04-18, 01:22:04,VALID,917.8,VALID,0,VALID,97.0613,VALID,0,VALID,20.2278,VALID,216,VALID,0.0984375,
2011-04-18, 01:23:04,VALID,917.762,VALID,0,VALID,97.0613,VALID,0,VALID,20.2489,VALID,216,VALID,0.290234,
2011-04-18, 01:24:04,VALID,917.752,VALID,0,VALID,97.0537,VALID,0,VALID,20.2083,VALID,217,VALID,0.189453,
2011-04-18, 01:25:04,VALID,917.716,VALID,0,VALID,97.0766,VALID,0,VALID,20.2668,VALID,217,VALID,0.519531,
2011-04-18, 01:26:04,VALID,917.693,VALID,0,VALID,97.0918,VALID,0,VALID,20.3058,VALID,216,VALID,0.766406,
2011-04-18, 01:27:04,VALID,917.689,VALID,0,VALID,97.0766,VALID,0.107441,VALID,20.3058,VALID,217,VALID,1.11172,
2011-04-18, 01:28:04,VALID,917.662,VALID,0,VALID,97.0842,VALID,0.107441,VALID,20.3253,VALID,217,VALID,0.287891,
2011-04-18, 01:29:04,VALID,917.632,VALID,0,VALID,97.069,VALID,0,VALID,20.3058,VALID,217,VALID,0.272656,
2011-04-18, 01:30:04,VALID,917.631,VALID,0,VALID,97.0994,VALID,0,VALID,20.2863,VALID,217,VALID,0.992578,
2011-04-18, 01:31:04,VALID,917.633,VALID,0,VALID,97.0842,VALID,0,VALID,20.2863,VALID,218,VALID,0.163672,
2011-04-18, 01:32:04,VALID,917.618,VALID,0,VALID,97.0842,VALID,0,VALID,20.2668,VALID,217,VALID,1.12148,
2011-04-18, 01:33:04,VALID,917.598,VALID,0,VALID,97.0918,VALID,0,VALID,20.2668,VALID,218,VALID,1.2668,
2011-04-18, 01:34:04,VALID,917.575,VALID,0,VALID,97.0918,VALID,0,VALID,20.2863,VALID,218,VALID,0.865234,
2011-04-18, 01:35:04,VALID,917.563,VALID,0,VALID,97.1071,VALID,0,VALID,20.2848,VALID,218,VALID,0.556641,
2011-04-18, 01:36:04,VALID,917.53,VALID,0,VALID,97.1147,VALID,0,VALID,20.3058,VALID,250,VALID,1.36328,
2011-04-18, 01:37:04,VALID,917.557,VALID,0,VALID,97.1147,VALID,0,VALID,20.2879,VALID,39,VALID,1.49336,
2011-04-18, 01:38:04,VALID,917.5,VALID,0,VALID,97.1071,VALID,0,VALID,20.3074,VALID,39,VALID,0.292188,
2011-04-18, 01:39:04,VALID,917.5,VALID,0,VALID,97.1071,VALID,0,VALID,20.2684,VALID,22,VALID,1.42227,
2011-04-18, 01:40:04,VALID,917.48,VALID,0,VALID,97.1223,VALID,0,VALID,20.3074,VALID,39,VALID,0.832812,
2011-04-18, 01:41:04,VALID,917.492,VALID,0,VALID,97.1071,VALID,0,VALID,20.3089,VALID,39,VALID,1.37578,
2011-04-18, 01:42:04,VALID,917.489,VALID,0,VALID,97.1223,VALID,0,VALID,20.3074,VALID,39,VALID,0.428906,
2011-04-18, 01:43:04,VALID,917.469,VALID,0,VALID,97.1223,VALID,0,VALID,20.2879,VALID,39,VALID,1.01602,
2011-04-18, 01:44:04,VALID,917.439,VALID,0,VALID,97.1147,VALID,0,VALID,20.2489,VALID,21,VALID,1.29336,
2011-04-18, 01:45:04,VALID,917.431,VALID,0,VALID,97.1071,VALID,0,VALID,20.2293,VALID,29,VALID,1.57227,
2011-04-18, 01:46:04,VALID,917.405,VALID,0,VALID,97.1299,VALID,0,VALID,20.2489,VALID,35,VALID,1.58555,
2011-04-18, 01:47:04,VALID,917.387,VALID,0,VALID,97.1376,VALID,0,VALID,20.2098,VALID,35,VALID,1.38086,
2011-04-18, 01:48:04,VALID,917.387,VALID,0,VALID,97.1147,VALID,0,VALID,20.2098,VALID,35,VALID,1.0957,
2011-04-18, 01:49:04,VALID,917.346,VALID,0,VALID,97.1299,VALID,0,VALID,20.1513,VALID,40,VALID,1.77383,
2011-04-18, 01:50:04,VALID,917.364,VALID,0,VALID,97.1376,VALID,0,VALID,20.1903,VALID,46,VALID,1.45977,
2011-04-18, 01:51:04,VALID,917.376,VALID,0,VALID,97.1681,VALID,0,VALID,20.2098,VALID,19,VALID,1.16719,
2011-04-18, 01:52:04,VALID,917.37,VALID,0,VALID,97.1376,VALID,0,VALID,20.1693,VALID,21,VALID,1.71758,
2011-04-18, 01:53:04,VALID,917.374,VALID,0,VALID,97.1452,VALID,0,VALID,20.1708,VALID,2,VALID,1.11758,
2011-04-18, 01:54:04,VALID,917.375,VALID,0,VALID,97.1376,VALID,0,VALID,20.1303,VALID,360,VALID,0.99375,
2011-04-18, 01:55:04,VALID,917.393,VALID,0,VALID,97.1604,VALID,0,VALID,20.1123,VALID,16,VALID,1.42109,
2011-04-18, 01:56:04,VALID,917.386,VALID,0,VALID,97.1528,VALID,0,VALID,20.1123,VALID,21,VALID,2.76719,
2011-04-18, 01:57:04,VALID,917.361,VALID,0,VALID,97.1757,VALID,0,VALID,20.1108,VALID,38,VALID,1.23906,
2011-04-18, 01:58:04,VALID,917.37,VALID,0,VALID,97.1909,VALID,0,VALID,20.1513,VALID,33,VALID,1.65508,
2011-04-18, 01:59:04,VALID,917.373,VALID,0,VALID,97.1757,VALID,0,VALID,20.1303,VALID,28,VALID,1.08945,
2011-04-18, 02:00:04,VALID,917.361,VALID,0,VALID,97.1528,VALID,0,VALID,20.1693,VALID,27,VALID,0.221875,
2011-04-18, 02:01:04,VALID,917.349,VALID,0,VALID,97.1757,VALID,0,VALID,20.1498,VALID,27,VALID,1.33555,
2011-04-18, 02:02:04,VALID,917.359,VALID,0,VALID,97.1986,VALID,0,VALID,20.1288,VALID,27,VALID,0.991406,
2011-04-18, 02:03:04,VALID,917.364,VALID,0,VALID,97.1833,VALID,0,VALID,20.1693,VALID,27,VALID,0.494141,
2011-04-18, 02:04:04,VALID,917.317,VALID,0,VALID,97.1986,VALID,0,VALID,20.1903,VALID,27,VALID,0.798437,
2011-04-18, 02:05:04,VALID,917.312,VALID,0,VALID,97.1833,VALID,0,VALID,20.1693,VALID,27,VALID,0.448828,
2011-04-18, 02:06:04,VALID,917.304,VALID,0,VALID,97.1986,VALID,0,VALID,20.1888,VALID,27,VALID,0.171875,
2011-04-18, 02:07:04,VALID,917.322,VALID,0,VALID,97.1909,VALID,0,VALID,20.1888,VALID,27,VALID,0.00351562,
2011-04-18, 02:08:04,VALID,917.296,VALID,0,VALID,97.1909,VALID,0,VALID,20.1498,VALID,225,VALID,0.860156,
2011-04-18, 02:09:04,VALID,917.315,VALID,0,VALID,97.1909,VALID,0,VALID,20.1303,VALID,225,VALID,0.203516,
2011-04-18, 02:10:04,VALID,917.274,VALID,0,VALID,97.2214,VALID,0,VALID,20.1708,VALID,225,VALID,0.403125,
2011-04-18, 02:11:04,VALID,917.269,VALID,0,VALID,97.2138,VALID,0,VALID,20.1303,VALID,225,VALID,0.908594,
2011-04-18, 02:12:04,VALID,917.252,VALID,0,VALID,97.1986,VALID,0.107441,VALID,20.1303,VALID,225,VALID,0.442578,
2011-04-18, 02:13:04,VALID,917.226,VALID,0,VALID,97.2062,VALID,0,VALID,20.1303,VALID,60,VALID,1.06719,
2011-04-18, 02:14:04,VALID,917.247,VALID,0,VALID,97.2214,VALID,0,VALID,20.1513,VALID,60,VALID,1.35391,
2011-04-18, 02:15:04,VALID,917.21,VALID,0,VALID,97.2214,VALID,0.107441,VALID,20.1303,VALID,34,VALID,1.42773,
2011-04-18, 02:16:04,VALID,917.24,VALID,0,VALID,97.2062,VALID,0,VALID,20.1303,VALID,44,VALID,0.604688,
2011-04-18, 02:17:04,VALID,917.242,VALID,0,VALID,97.2214,VALID,0,VALID,20.1498,VALID,45,VALID,0.496875,
2011-04-18, 02:18:04,VALID,917.243,VALID,0,VALID,97.229,VALID,0,VALID,20.1498,VALID,44,VALID,0.945703,
2011-04-18, 02:19:04,VALID,917.239,VALID,0,VALID,97.2367,VALID,0,VALID,20.1498,VALID,44,VALID,0.986328,
2011-04-18, 02:20:04,VALID,917.226,VALID,0,VALID,97.2214,VALID,0,VALID,20.1693,VALID,17,VALID,1.01563,
2011-04-18, 02:21:04,VALID,917.192,VALID,0,VALID,97.2367,VALID,0,VALID,20.1498,VALID,33,VALID,1.44141,
2011-04-18, 02:22:04,VALID,917.206,VALID,0,VALID,97.2443,VALID,0,VALID,20.1919,VALID,34,VALID,0.675391,
2011-04-18, 02:23:04,VALID,917.187,VALID,0,VALID,97.229,VALID,0,VALID,20.1318,VALID,36,VALID,1.48242,
2011-04-18, 02:24:04,VALID,917.162,VALID,0,VALID,97.2519,VALID,0,VALID,20.0928,VALID,42,VALID,1.73203,
2011-04-18, 02:25:04,VALID,917.182,VALID,0,VALID,97.229,VALID,0,VALID,20.0928,VALID,36,VALID,1.02148,
2011-04-18, 02:26:04,VALID,917.193,VALID,0,VALID,97.229,VALID,0,VALID,20.0944,VALID,46,VALID,1.38828,
2011-04-18, 02:27:04,VALID,917.194,VALID,0,VALID,97.2519,VALID,0,VALID,20.0718,VALID,353,VALID,0.875391,
2011-04-18, 02:28:04,VALID,917.181,VALID,0,VALID,97.2443,VALID,0,VALID,20.0928,VALID,353,VALID,1.18242,
2011-04-18, 02:29:04,VALID,917.198,VALID,0,VALID,97.2367,VALID,0,VALID,20.0733,VALID,356,VALID,1.47344,
2011-04-18, 02:30:04,VALID,917.183,VALID,0,VALID,97.2519,VALID,0,VALID,20.0733,VALID,21,VALID,1.0418,
2011-04-18, 02:31:04,VALID,917.201,VALID,0,VALID,97.2519,VALID,0,VALID,20.0733,VALID,32,VALID,1.38437,
2011-04-18, 02:32:04,VALID,917.231,VALID,0,VALID,97.2443,VALID,0,VALID,20.0538,VALID,7,VALID,0.614844,
2011-04-18, 02:33:04,VALID,917.199,VALID,0,VALID,97.2748,VALID,0,VALID,20.1123,VALID,6,VALID,1.05,
2011-04-18, 02:34:04,VALID,917.215,VALID,0,VALID,97.2595,VALID,0,VALID,20.0733,VALID,6,VALID,1.26172,
2011-04-18, 02:35:04,VALID,917.196,VALID,0,VALID,97.2672,VALID,0,VALID,20.1123,VALID,6,VALID,0.482812,
2011-04-18, 02:36:04,VALID,917.193,VALID,0,VALID,97.2672,VALID,0,VALID,20.0928,VALID,336,VALID,0.892187,
2011-04-18, 02:37:04,VALID,917.215,VALID,0,VALID,97.2519,VALID,0,VALID,20.0523,VALID,32,VALID,1.00117,
2011-04-18, 02:38:04,VALID,917.197,VALID,0.2,VALID,97.2595,VALID,0,VALID,20.1123,VALID,32,VALID,1.15117,
2011-04-18, 02:39:04,VALID,917.182,VALID,0,VALID,97.2748,VALID,0,VALID,20.1318,VALID,32,VALID,1.20742,
2011-04-18, 02:40:04,VALID,917.157,VALID,0.2,VALID,97.2672,VALID,0,VALID,20.1123,VALID,32,VALID,1.09102,
2011-04-18, 02:41:04,VALID,917.17,VALID,0.2,VALID,97.2595,VALID,0,VALID,20.1123,VALID,32,VALID,0.129297,
2011-04-18, 02:42:04,VALID,917.157,VALID,0.2,VALID,97.2748,VALID,0,VALID,20.1123,VALID,32,VALID,0.442187,
2011-04-18, 02:43:04,VALID,917.147,VALID,0,VALID,97.2519,VALID,0,VALID,20.0928,VALID,32,VALID,0.606641,
2011-04-18, 02:44:04,VALID,917.128,VALID,0,VALID,97.2748,VALID,0,VALID,20.0928,VALID,32,VALID,0.0257812,
2011-04-18, 02:45:04,VALID,917.152,VALID,0,VALID,97.2672,VALID,0,VALID,20.0928,VALID,33,VALID,0.00429688,
2011-04-18, 02:46:04,VALID,917.167,VALID,0,VALID,97.29,VALID,0,VALID,20.1123,VALID,32,VALID,0,
2011-04-18, 02:47:04,VALID,917.107,VALID,0,VALID,97.2672,VALID,0,VALID,20.1123,VALID,33,VALID,0.507813,
2011-04-18, 02:48:04,VALID,917.14,VALID,0.2,VALID,97.2824,VALID,0,VALID,20.0928,VALID,32,VALID,1.30625,
2011-04-18, 02:49:04,VALID,917.099,VALID,0,VALID,97.2672,VALID,0,VALID,20.1318,VALID,32,VALID,1.0082,
2011-04-18, 02:50:04,VALID,917.128,VALID,0,VALID,97.29,VALID,0,VALID,20.1318,VALID,298,VALID,0.83125,
2011-04-18, 02:51:04,VALID,917.087,VALID,0,VALID,97.29,VALID,0,VALID,20.1123,VALID,22,VALID,1.48398,
2011-04-18, 02:52:04,VALID,917.107,VALID,0,VALID,97.2672,VALID,0,VALID,20.0718,VALID,5,VALID,1.33633,
2011-04-18, 02:53:04,VALID,917.084,VALID,0,VALID,97.2672,VALID,0,VALID,20.0733,VALID,38,VALID,0.655859,
2011-04-18, 02:54:04,VALID,917.044,VALID,0.2,VALID,97.29,VALID,0,VALID,20.0538,VALID,34,VALID,0.869141,
2011-04-18, 02:55:04,VALID,917.104,VALID,0,VALID,97.29,VALID,0,VALID,19.9953,VALID,11,VALID,1.31562,
2011-04-18, 02:56:04,VALID,917.079,VALID,0,VALID,97.2748,VALID,0,VALID,19.9368,VALID,51,VALID,1.25078,
2011-04-18, 02:57:04,VALID,917.073,VALID,0.2,VALID,97.29,VALID,0,VALID,19.9368,VALID,55,VALID,1.20625,
2011-04-18, 02:58:04,VALID,917.07,VALID,0,VALID,97.2824,VALID,0,VALID,19.9173,VALID,45,VALID,1.11172,
2011-04-18, 02:59:04,VALID,917.045,VALID,0,VALID,97.2748,VALID,0,VALID,19.8963,VALID,35,VALID,0.888672,
2011-04-18, 03:00:04,VALID,917.019,VALID,0.2,VALID,97.29,VALID,0,VALID,19.8978,VALID,28,VALID,1.36406,
2011-04-18, 03:01:04,VALID,917.028,VALID,0.2,VALID,97.2824,VALID,0,VALID,19.8978,VALID,30,VALID,0.339063,
2011-04-18, 03:02:04,VALID,916.992,VALID,0,VALID,97.2824,VALID,0,VALID,19.8783,VALID,29,VALID,1.57227,
2011-04-18, 03:03:04,VALID,917.02,VALID,0.2,VALID,97.2672,VALID,0,VALID,19.8768,VALID,18,VALID,0.610156,
2011-04-18, 03:04:04,VALID,917.043,VALID,0,VALID,97.3053,VALID,0,VALID,19.8978,VALID,18,VALID,0.785937,
2011-04-18, 03:05:04,VALID,917.03,VALID,0.2,VALID,97.3205,VALID,0,VALID,19.8963,VALID,18,VALID,0.978125,
2011-04-18, 03:06:04,VALID,916.991,VALID,0,VALID,97.29,VALID,0,VALID,19.8963,VALID,18,VALID,1.04141,
2011-04-18, 03:07:04,VALID,916.962,VALID,0,VALID,97.3129,VALID,0,VALID,19.9368,VALID,18,VALID,0.283203,
2011-04-18, 03:08:04,VALID,916.957,VALID,0.2,VALID,97.29,VALID,0,VALID,19.9173,VALID,17,VALID,0.75625,
2011-04-18, 03:09:04,VALID,916.947,VALID,0,VALID,97.3129,VALID,0,VALID,19.8978,VALID,18,VALID,0.550781,
2011-04-18, 03:10:04,VALID,916.942,VALID,0,VALID,97.3053,VALID,0,VALID,19.8978,VALID,18,VALID,1.24453,
2011-04-18, 03:11:04,VALID,916.921,VALID,0,VALID,97.3053,VALID,0,VALID,19.8783,VALID,26,VALID,1.40352,
2011-04-18, 03:12:04,VALID,916.919,VALID,0.2,VALID,97.3129,VALID,0,VALID,19.8783,VALID,26,VALID,0.442969,
2011-04-18, 03:13:04,VALID,916.883,VALID,0,VALID,97.3129,VALID,0,VALID,19.8393,VALID,45,VALID,1.32617,
2011-04-18, 03:14:04,VALID,916.858,VALID,0,VALID,97.3053,VALID,0,VALID,19.8198,VALID,64,VALID,1.23789,
2011-04-18, 03:15:04,VALID,916.861,VALID,0.2,VALID,97.3053,VALID,0,VALID,19.8393,VALID,360,VALID,1.41055,
2011-04-18, 03:16:04,VALID,916.823,VALID,0,VALID,97.2977,VALID,0,VALID,19.8003,VALID,58,VALID,1.22891,
2011-04-18, 03:17:04,VALID,916.823,VALID,0,VALID,97.3129,VALID,0,VALID,19.8003,VALID,40,VALID,1.73906,
2011-04-18, 03:18:04,VALID,916.831,VALID,0,VALID,97.3053,VALID,0,VALID,19.8003,VALID,32,VALID,1.78555,
2011-04-18, 03:19:04,VALID,916.814,VALID,0,VALID,97.3205,VALID,0,VALID,19.7613,VALID,32,VALID,1.2625,
2011-04-18, 03:20:04,VALID,916.813,VALID,0,VALID,97.3205,VALID,0,VALID,19.7808,VALID,285,VALID,1.08555,
2011-04-18, 03:21:04,VALID,916.822,VALID,0.2,VALID,97.3129,VALID,0,VALID,19.7613,VALID,19,VALID,0.848437,
2011-04-18, 03:22:04,VALID,916.84,VALID,0,VALID,97.3205,VALID,0.107441,VALID,19.7598,VALID,18,VALID,1.19961,
2011-04-18, 03:23:04,VALID,916.824,VALID,0,VALID,97.3358,VALID,0.107441,VALID,19.7793,VALID,19,VALID,0.788281,
2011-04-18, 03:24:04,VALID,916.79,VALID,0,VALID,97.3281,VALID,0.107441,VALID,19.7988,VALID,19,VALID,0.898438,
2011-04-18, 03:25:04,VALID,916.783,VALID,0,VALID,97.3281,VALID,0.107441,VALID,19.8183,VALID,23,VALID,0.907031,
2011-04-18, 03:26:04,VALID,916.724,VALID,0,VALID,97.3358,VALID,0,VALID,19.8183,VALID,36,VALID,1.51367,
2011-04-18, 03:27:04,VALID,916.715,VALID,0,VALID,97.3586,VALID,0.107441,VALID,19.7793,VALID,39,VALID,2.02461,
2011-04-18, 03:28:04,VALID,916.687,VALID,0,VALID,97.3358,VALID,0,VALID,19.7598,VALID,14,VALID,1.47852,
2011-04-18, 03:29:04,VALID,916.708,VALID,0,VALID,97.3281,VALID,0.107441,VALID,19.7403,VALID,11,VALID,1.73555,
2011-04-18, 03:30:04,VALID,916.686,VALID,0,VALID,97.3434,VALID,0,VALID,19.6818,VALID,27,VALID,2.00625,
2011-04-18, 03:31:04,VALID,916.703,VALID,0,VALID,97.3358,VALID,0,VALID,19.6623,VALID,9,VALID,1.90313,
2011-04-18, 03:32:04,VALID,916.738,VALID,0,VALID,97.3053,VALID,0,VALID,19.6428,VALID,21,VALID,1.88945,
2011-04-18, 03:33:04,VALID,916.724,VALID,0.2,VALID,97.3281,VALID,0,VALID,19.6233,VALID,22,VALID,1.49102,
2011-04-18, 03:34:04,VALID,916.712,VALID,0,VALID,97.3358,VALID,0,VALID,19.6428,VALID,24,VALID,1.18203,
2011-04-18, 03:35:04,VALID,916.742,VALID,0,VALID,97.3281,VALID,0.107441,VALID,19.6023,VALID,20,VALID,1.61211,
2011-04-18, 03:36:04,VALID,916.726,VALID,0,VALID,97.3358,VALID,0,VALID,19.6233,VALID,13,VALID,1.29414,
2011-04-18, 03:37:04,VALID,916.716,VALID,0,VALID,97.3205,VALID,0,VALID,19.6053,VALID,353,VALID,1.43945,
2011-04-18, 03:38:04,VALID,916.732,VALID,0,VALID,97.3434,VALID,0,VALID,19.6053,VALID,13,VALID,1.32031,
2011-04-18, 03:39:04,VALID,916.698,VALID,0,VALID,97.3434,VALID,0,VALID,19.6248,VALID,12,VALID,1.68633,
2011-04-18, 03:40:04,VALID,916.725,VALID,0,VALID,97.3739,VALID,0,VALID,19.6053,VALID,10,VALID,1.33672,
2011-04-18, 03:41:04,VALID,916.715,VALID,0,VALID,97.3815,VALID,0,VALID,19.5843,VALID,334,VALID,0.627344,
2011-04-18, 03:42:04,VALID,916.705,VALID,0,VALID,97.3663,VALID,0,VALID,19.6038,VALID,330,VALID,1.08633,
2011-04-18, 03:43:04,VALID,916.64,VALID,0,VALID,97.3739,VALID,0,VALID,19.6248,VALID,23,VALID,2.24219,
2011-04-18, 03:44:04,VALID,916.615,VALID,0,VALID,97.3739,VALID,0,VALID,19.6638,VALID,20,VALID,1.13359,
2011-04-18, 03:45:04,VALID,916.629,VALID,0,VALID,97.3739,VALID,0,VALID,19.6443,VALID,18,VALID,1.4543,